Flag for Brazil Weather past 2 weeks in Passo Fundo, Rio Grande do Sul, Brazil

Now
66 °F

Passing clouds.


Feels Like: 66 °F
Forecast: 47 / 65 °F
Wind: 13 mph from East

Location: Porto Alegre Aero-Porto

Current Time: Jul 2, 2015 at 2:05:08 PM

Latest Report: Jul 2, 2015 at 1:00 PM


Visibility: N/A

Pressure: 30.07 "Hg

Humidity: 64%

Dew point: 54 °F

Location of Passo FundoLocation

Historic Weather in Passo Fundo — Graph

°F

Passo Fundo temperature yesterday

Maximum temperature yesterday: 63 °F (at 12:00 PM)
Minimum temperature yesterday: 54 °F (at 9:00 PM)
Average temperature yesterday: 59 °F

Past Weeks' High & Low Weather Summary

 TemperatureHumidityPressure
High75 °F (Jun 27, 3:00 PM)100% (Jun 26, 7:00 AM)30.51 "Hg (Jun 26, 7:00 AM)
Low41 °F (Jun 19, 8:00 AM)41% (Jun 27, 4:00 PM)29.80 "Hg (Jun 30, 6:00 AM)
Average58 °F79%30.22 "Hg
* Reported Jun 17 1:00 PM — Jul 2 1:00 PM, Passo Fundo, Weather by CustomWeather, © 2015

Note: Actual official high and low records may vary slightly from our data, if they occured in-between our weather recording intervals... More about our weather records

Advertising

Passo Fundo weather history for previous 24 hours

 ConditionsComfort  
Time TempWeatherWind HumidityBarometerVisibility
1:00 PM
Thu, Jul 2
66 °FPassing clouds.13 mph64%30.07 "HgN/A
12:00 PM66 °FSunny.12 mph64%30.12 "Hg10 mi
11:00 AM63 °FPassing clouds.8 mph73%30.15 "HgN/A
10:00 AM55 °FFog.2 mph100%30.18 "Hg3 mi
9:00 AM54 °FFog.No wind100%N/A1 mi
8:00 AM54 °FFog.2 mph100%N/A1 mi
7:00 AMN/AFog.3 mphN/AN/A1 mi
6:00 AM54 °FFog.3 mph94%N/A1 mi
5:00 AM54 °FFog.5 mph94%N/A1 mi
4:00 AM54 °FFog.5 mph94%N/A1 mi
3:00 AM54 °FFog.6 mph94%N/A1 mi
2:00 AM54 °FFog.3 mph94%30.18 "Hg3 mi
1:00 AM52 °FPartly cloudy.2 mph88%30.21 "HgN/A
12:00 AM50 °FPassing clouds.3 mph94%30.21 "HgN/A
11:00 PM
Wed, Jul 1
54 °FPassing clouds.3 mph82%30.21 "HgN/A
10:00 PM54 °FPassing clouds.2 mph88%30.21 "HgN/A
9:00 PM54 °FPassing clouds.2 mph82%30.21 "HgN/A
8:00 PM55 °FClear.5 mph77%30.18 "Hg10 mi
7:00 PM55 °FClear.5 mph77%30.18 "Hg10 mi
6:00 PM57 °FPassing clouds.6 mph67%30.15 "HgN/A
5:00 PM59 °FClear.8 mph68%30.15 "Hg10 mi
4:00 PM61 °FPassing clouds.8 mph63%30.15 "HgN/A
3:00 PM61 °FPartly sunny.8 mph68%30.15 "HgN/A
2:00 PM61 °FOvercast.8 mph68%30.15 "HgN/A
Weather by CustomWeather, © 2015

See weather overviewHow to use our weather pages